Location: Unspecified
(0.0000°N, 0.0000°E)
Time: 17:48:56
(UTC+00:00)

STARLINK 1064 - Pass Details

Date: 21 January 2020
Orbit: 549 x 551 km, 53.0° (Epoch: 17 January)

Event Time Altitude Azimuth Distance (km) Brightness Sun altitude
Rises 04:07:11 0° 181° (S) 2,713 7.4 -28.9°
Reaches altitude 10° 04:10:38 10° 151° (SSE) 1,817 6.9 -28.1°
Maximum altitude 04:12:23 12° 125° (SE) 1,664 6.9 -27.7°
Drops below altitude 10° 04:14:09 10° 100° (E) 1,814 7.2 -27.3°
Sets 04:17:34 0° 70° (ENE) 2,703 7.8 -26.5°
